Aérodrome :
LOGIN :

S'inscrire | Disclaimer

   EN    FR    IT 

 










Légende :    VFR   VFR Marginal   IFR   IFR Intensif   IFR Très Intensif
Visi : 
Plafond : 
>= 8 km
>= 3000ft
5 à 8 km
1000 à 3000 ft
1500m à 5 km
500 à 1000 ft
800 à 1500m
200 à 500 ft
< 800m
< 200 ft
Symboles :   Orages  Brouillard  Fortes neiges  Fortes précipitations  Vent > 20 kt
SIGMETs :   Divers  Orages  Givrage  Turbulence  Onde Orograph.  Cendres Volcan.







- Altitude de l'aérodrome : 112 ft
- Code IATA : SVQ


LEZL - Sevilla San Pablo

DERNIER METAR :
  • 261200Z 23002KT CAVOK 30/18 Q1014 NOSIG

METARs EXPIRÉS :
  • 261130Z 23006KT 160V310 CAVOK 29/18 Q1014 NOSIG
  • 261100Z 22006KT 180V320 CAVOK 28/18 Q1015 NOSIG
  • 261030Z 22006KT 190V280 CAVOK 27/19 Q1015 NOSIG
  • 261000Z 24005KT 190V300 CAVOK 26/18 Q1015 NOSIG
  • 260930Z 27003KT 180V350 9999 FEW015 25/19 Q1015 NOSIG

TAF TAF LEZL
Valide du 26 à 09h jusqu'au 27 à 09h UTC


260800Z 2609/2709 22006KT CAVOK TX37/2615Z TN19/2706Z
Pas de NOTAMs connus pour ce terrain.



MET'MAP, la Météo Aéronautique d'un coup d'oeil ! - Copyright ORBIFLY Décembre 2007 - Disclaimer

ORBIFLY MET'MAP TEAM :

Programmation & Développement : Alexandra Zaïnal
Conception & Développement : Baudouin d'Aumeries
Co-Programmation & Développement : Marc-Olivier Méhu
Soutien technique & logistique : Manuel Goepfert

Contact : metmap@orbifly.com




SOURCES & CREDITS :

   NOAA